Find Starlink 31394

NORAD ID: 59185 Int'l Des: 2024-045 Owner: SPXS Country: US Constellation: starlink operational
LEOCIRCULAR

Current View

Loading 3D Globe...

About Starlink 31394

Starlink 31394 (NORAD 59185) is a starlink constellation satellite (v2 mini) launched Mar 11, 2024 by SPXS of US. It operates in LEO, CIRCULAR orbit with a mass of 730.00 kg.

About Starlink 31394

Description loading...

Upcoming Passes

Passes for default location (London). Set your location on the main map for personalized predictions.

Altitude History

Loading altitude history...

Two-Line Element Set

1 59185U 24045H 26173.44346074 .00006478 00000-0 24490-3 0 9991
2 59185 43.0008 210.4506 0001584 280.7829 79.2844 15.27557483129303
Epoch: Jun 22, 2026 • Age: 29 hours

Current Status

Altitude 482.8 km
Velocity 7.63 km/s
Sub-Earth Point 5.38°N, 128.56°W
Launch Date Mar 11, 2024
Age 2.2 years
Type internet

Technical Details

Classification Payload
Mass 730.00 kg
Dry Mass 700.00 kg
Total Mass 730.00 kg
Length 0.30 m
Diameter 4.10 m
Span 29.00 m
Shape Box + pan
Manufacturer SPXS
Bus Type Starlink V2M
Phase Status In Orbit
Owner/State SPXS/US

Most Searched